Find Starlink 36982

NORAD ID: 68278 Int'l Des: 2026-055 Owner: SPXS Country: US Constellation: starlink operational
LEOCIRCULAR

Live Position

Loading 3D Globe...

About Starlink 36982

Description loading...

Upcoming Passes

Passes for default location (London). Set your location on the main map for personalized predictions.

Altitude History

Loading altitude history...

Two-Line Element Set

1 68278U 26055S 26124.16251133 .00034362 00000-0 79542-3 0 9994
2 68278 53.1611 62.3503 0001015 92.6918 267.4205 15.42164614 8414
Epoch: May 4, 2026 • Age: 11 hours

Current Status

Altitude 441.3 km
Velocity 7.65 km/s
Sub-Earth Point 32.08°N, 1°E
Launch Date Mar 19, 2026
Age 0.1 years
Type internet

Technical Details

Classification Payload
Mass 575.00 kg
Dry Mass 530.00 kg
Total Mass 575.00 kg
Length 0.30 m
Diameter 4.10 m
Span 29.00 m
Shape Box + pan
Manufacturer SPXS
Bus Type Starlink V2MO
Phase Status In Orbit
Owner/State SPXS/US

Most Searched